Regional Weather Roundup
Issued by NWS Raleigh/Durham, NC

Home | Current Version | Previous Version | Text Only | Print | Product List | Glossary On
Versions: 1 2 3 4 5 6 7 8 9 10 11 12 13 14 15 16 17 18 19 20 21 22 23 24 25 26 27 28 29 30 31 32 33 34 35 36 37 38 39 40 41 42 43 44 45 46 47 48 49 50
000
ASUS42 KRAH 130510
RWRRAH
NORTH CAROLINA WEATHER ROUNDUP
NATIONAL WEATHER SERVICE RALEIGH NC
1200 AM EST SAT FEB 13 2016

NOTE: "FAIR" INDICATES FEW OR NO CLOUDS BELOW 12,000 FEET WITH NO
SIGNIFICANT WEATHER AND/OR OBSTRUCTIONS TO VISIBILITY.

NCZ001-053-055-056-065-067-130600-
WESTERN NORTH CAROLINA

CITY           SKY/WX    TMP DP  RH WIND       PRES   REMARKS
ASHEVILLE      CLOUDY    30  23  75 N14       30.04S WCI  19
JEFFERSON      LGT SNOW  24  14  67 NW45G68   29.84S WCI   3
MORGANTON      CLOUDY    35  19  52 W10G17    30.09R WCI  27
HICKORY        CLOUDY    35  18  49 NW7G17    30.04R WCI  29
RUTHERFORDTON  CLOUDY    36  19  50 W14G22    30.06S WCI  27
MOUNT AIRY     CLOUDY    35  17  48 W7G20     30.03S WCI  29
BOONE          LGT SNOW  22  19  86 NW33G52   29.93S VSB 3/4 WCI   3
$$

NCZ021-022-025-041-071-084-088-130600-
CENTRAL NORTH CAROLINA

CITY           SKY/WX    TMP DP  RH WIND       PRES   REMARKS
CHARLOTTE      PTCLDY    33  24  69 NW5       30.05S WCI  29
GREENSBORO     CLOUDY    37  20  50 NW15G25   30.01R WCI  28
WINSTON-SALEM  CLOUDY    36  19  50 NW13G22   30.03R WCI  27
RALEIGH-DURHAM MOCLDY    31  23  72 W5        30.03S WCI  26
FORT BRAGG     CLEAR     30  28  94 W2        30.03S
FAYETTEVILLE   MOCLDY    32  30  92 W5        30.04S FOG     WCI  27
BURLINGTON     CLOUDY    34  22  61 W7        30.02R WCI  28
LAURINBURG     FOG       29  28  96 CALM      30.06R VSB 1/4
$$

NCZ011-015-027-028-043-044-047-080-103-130600-
NORTHEASTERN NORTH CAROLINA

CITY           SKY/WX    TMP DP  RH WIND       PRES   REMARKS
ROCKY MT-WILSO CLOUDY    30  26  85 CALM      30.04S
GREENVILLE     MOCLDY    30  28  93 W3        30.05F
WASHINGTON     MOCLDY    28  26  93 W5        30.03S WCI  22
ELIZABETH CITY PTCLDY    24  23  96 W6        30.02R WCI  17
MANTEO         CLOUDY    31  30  94 NW13      30.01S WCI  22
CAPE HATTERAS  CLOUDY    35  33  92 NW9       30.00S WCI  28
$$

NCZ078-087-090-091-093-098-101-130600-
SOUTHEASTERN NORTH CAROLINA

CITY           SKY/WX    TMP DP  RH WIND       PRES   REMARKS
LUMBERTON      CLEAR     30  27  88 CALM      30.05R FOG
GOLDSBORO      CLOUDY    30  30 100 W5        30.02F WCI  25
KINSTON        CLOUDY    30  29  96 SW3       30.04F
KENANSVILLE    CLOUDY    31  31 100 CALM      30.04F FOG
NEW BERN       CLOUDY    31  29  92 W7        30.05S WCI  24
CHERRY POINT   CLOUDY    32  31  96 NW12      30.05S WCI  23
BEAUFORT       CLOUDY    33  32  96 NW10      30.03F WCI  25
JACKSONVILLE   CLOUDY    32  30  92 W5        30.04F FOG     WCI  27
WILMINGTON     CLEAR     31  28  89 NW3       30.04F
$$




USA.gov is the U.S. government's official web portal to all federal, state and local government web resources and services.